BOX449 KORD-EDDF

Flight info

Callsign BOX449
Flight time N/A
Altitude 33000
Route RAYNR DCT BRTMN DCT TAAYZ DCT TVC DCT DASUG DCT SELBO DCT BROME DCT DORYY/M083F350 DCT 58N050W 59N040W 59N030W 58N020W DCT SUNOT DCT KESIX/N0476F350 DCT AMLAD DCT EMGAT DCT ERKIT N110 DOLAS DCT NAVPI DCT NOLRU DCT DIXAT DIXAT1D
Aircraft B77L/H-SDE1E2E3FGHIJ2J3J4J5M1RWXY/LB1D1

Departure

Time 2026-04-30 06:52
Airport Chicago O'Hare International Airport (KORD)

Arrival

Time N/A
Airport Frankfurt Main Airport (EDDF)
Time Latitude Longitude Altitude Speed Heading
2026-04-30 06:22 41.96157 -87.90890 674 ft 0 kts 171°
2026-04-30 06:40 41.96168 -87.90893 674 ft 2 kts 161°
2026-04-30 06:40 41.96184 -87.90900 674 ft 2 kts 153°
2026-04-30 06:41 41.96198 -87.90912 671 ft 2 kts 138°
2026-04-30 06:41 41.96209 -87.90929 671 ft 2 kts 121°
2026-04-30 06:41 41.96216 -87.90948 673 ft 2 kts 107°
2026-04-30 06:41 41.96219 -87.90970 673 ft 2 kts 96°
2026-04-30 06:42 41.96220 -87.90992 673 ft 2 kts 89°
2026-04-30 06:42 41.96220 -87.91004 674 ft 1 kts 88°
2026-04-30 06:42 41.96220 -87.91006 674 ft 0 kts 89°
2026-04-30 06:44 41.96220 -87.91002 674 ft 4 kts 89°
2026-04-30 06:44 41.96220 -87.90918 675 ft 10 kts 90°
2026-04-30 06:44 41.96225 -87.90825 673 ft 10 kts 71°
2026-04-30 06:45 41.96267 -87.90749 675 ft 10 kts 51°
2026-04-30 06:45 41.96310 -87.90674 675 ft 10 kts 53°
2026-04-30 06:45 41.96354 -87.90600 675 ft 10 kts 51°
2026-04-30 06:45 41.96398 -87.90526 675 ft 10 kts 48°
2026-04-30 06:46 41.96463 -87.90496 674 ft 10 kts
2026-04-30 06:46 41.96535 -87.90496 674 ft 10 kts 359°
2026-04-30 06:46 41.96613 -87.90497 673 ft 15 kts 360°
2026-04-30 06:46 41.96719 -87.90509 674 ft 15 kts 330°
2026-04-30 06:47 41.96740 -87.90646 674 ft 16 kts 270°
2026-04-30 06:47 41.96739 -87.90792 674 ft 16 kts 269°
2026-04-30 06:47 41.96739 -87.90936 675 ft 16 kts 270°
2026-04-30 06:47 41.96740 -87.91081 675 ft 16 kts 271°
2026-04-30 06:48 41.96740 -87.91227 675 ft 16 kts 270°
2026-04-30 06:48 41.96739 -87.91373 676 ft 16 kts 271°
2026-04-30 06:48 41.96739 -87.91519 676 ft 16 kts 269°
2026-04-30 06:48 41.96738 -87.91700 676 ft 23 kts 269°
2026-04-30 06:49 41.96738 -87.91921 676 ft 24 kts 270°
2026-04-30 06:49 41.96738 -87.92141 675 ft 24 kts 270°
2026-04-30 06:49 41.96738 -87.92361 676 ft 23 kts 269°
2026-04-30 06:49 41.96737 -87.92564 675 ft 19 kts 269°
2026-04-30 06:50 41.96737 -87.92737 676 ft 19 kts 270°
2026-04-30 06:50 41.96736 -87.92911 677 ft 19 kts 269°
2026-04-30 06:50 41.96736 -87.93077 677 ft 14 kts 271°
2026-04-30 06:50 41.96812 -87.93134 679 ft 14 kts
2026-04-30 06:51 41.96894 -87.93116 680 ft 10 kts 47°
2026-04-30 06:51 41.96900 -87.93062 679 ft 0 kts 89°
2026-04-30 06:51 41.96900 -87.93013 681 ft 20 kts 89°
2026-04-30 06:52 41.96901 -87.92465 676 ft 102 kts 90°
2026-04-30 06:52 41.96903 -87.91147 677 ft 177 kts 90°
2026-04-30 06:52 41.96924 -87.89343 1119 ft 189 kts 87°
2026-04-30 06:52 41.96949 -87.87635 1626 ft 179 kts 84°
2026-04-30 06:53 41.97159 -87.85936 1584 ft 191 kts 57°
2026-04-30 06:53 41.98115 -87.84746 1676 ft 191 kts 16°
2026-04-30 06:53 41.99331 -87.84339 2143 ft 170 kts
2026-04-30 06:53 42.00492 -87.84405 2410 ft 177 kts 337°
2026-04-30 06:54 42.01716 -87.85034 2686 ft 201 kts 343°
2026-04-30 06:54 42.03168 -87.85485 3054 ft 224 kts 349°
2026-04-30 06:54 42.04752 -87.85767 3798 ft 234 kts 353°
2026-04-30 06:54 42.06408 -87.85904 4620 ft 242 kts 356°
2026-04-30 06:55 42.08104 -87.85915 5531 ft 246 kts 358°
2026-04-30 06:55 42.09822 -87.85832 6472 ft 248 kts 360°
2026-04-30 06:55 42.11555 -87.85678 7351 ft 251 kts
2026-04-30 06:55 42.13302 -87.85473 8274 ft 253 kts
2026-04-30 06:56 42.15056 -87.85234 9183 ft 254 kts
2026-04-30 06:56 42.16225 -87.85062 9797 ft 256 kts
2026-04-30 06:56 42.18006 -87.84789 10540 ft 263 kts
2026-04-30 06:56 42.19913 -87.84491 10762 ft 289 kts
2026-04-30 06:57 42.22003 -87.84153 10980 ft 316 kts
2026-04-30 06:57 42.24272 -87.83774 11270 ft 339 kts
2026-04-30 06:57 42.26652 -87.83367 11953 ft 350 kts
2026-04-30 06:57 42.29099 -87.82949 12765 ft 358 kts
2026-04-30 06:58 42.31590 -87.82525 13667 ft 363 kts
2026-04-30 06:58 42.34120 -87.82168 14476 ft 368 kts
2026-04-30 06:58 42.36697 -87.81855 15258 ft 374 kts 360°
2026-04-30 06:58 42.39308 -87.81539 16062 ft 380 kts
2026-04-30 06:59 42.41960 -87.81207 16825 ft 386 kts
2026-04-30 06:59 42.44653 -87.80862 17585 ft 392 kts
2026-04-30 06:59 42.47389 -87.80550 18340 ft 396 kts 357°
2026-04-30 06:59 42.50143 -87.80594 18987 ft 397 kts 351°
2026-04-30 07:00 42.52871 -87.80805 19700 ft 400 kts 351°
2026-04-30 07:00 42.55657 -87.81008 20453 ft 402 kts 351°
2026-04-30 07:00 42.58461 -87.81200 21177 ft 405 kts 351°
2026-04-30 07:00 42.61288 -87.81384 21889 ft 409 kts 351°
2026-04-30 07:01 42.64142 -87.81566 22569 ft 413 kts 351°
2026-04-30 07:01 42.67025 -87.81749 23253 ft 416 kts 351°
2026-04-30 07:01 42.69936 -87.81747 23761 ft 427 kts 359°
2026-04-30 07:01 42.72883 -87.80768 24196 ft 447 kts 14°
2026-04-30 07:02 42.75700 -87.78832 24750 ft 462 kts 27°
2026-04-30 07:02 42.78257 -87.76126 25225 ft 469 kts 33°
2026-04-30 07:02 42.80771 -87.73249 25658 ft 476 kts 33°
2026-04-30 07:02 42.83304 -87.70311 26163 ft 480 kts 34°
2026-04-30 07:03 42.85854 -87.67354 26659 ft 483 kts 34°
2026-04-30 07:03 42.88431 -87.64387 27161 ft 487 kts 33°
2026-04-30 07:03 42.91034 -87.61411 27627 ft 490 kts 33°
2026-04-30 07:03 42.93668 -87.58418 28095 ft 494 kts 33°
2026-04-30 07:04 42.96323 -87.55413 28567 ft 497 kts 33°
2026-04-30 07:04 42.98999 -87.52385 29013 ft 501 kts 33°
2026-04-30 07:04 43.01691 -87.49338 29459 ft 504 kts 33°
2026-04-30 07:04 43.04403 -87.46265 29880 ft 507 kts 33°
2026-04-30 07:05 43.09837 -87.40089 30778 ft 508 kts 33°
2026-04-30 07:05 43.12549 -87.36998 31258 ft 507 kts 33°
2026-04-30 07:05 43.15255 -87.33910 31700 ft 507 kts 33°
2026-04-30 07:06 43.17965 -87.30817 32091 ft 508 kts 34°
2026-04-30 07:06 43.20682 -87.27714 32477 ft 509 kts 34°
2026-04-30 07:06 43.23364 -87.24646 32914 ft 508 kts 34°
2026-04-30 07:06 43.26088 -87.21527 33114 ft 512 kts 34°
2026-04-30 07:07 43.31552 -87.15258 33074 ft 510 kts 34°
2026-04-30 07:07 43.36961 -87.09030 33070 ft 506 kts 34°
2026-04-30 07:08 43.42358 -87.02808 33079 ft 506 kts 34°
2026-04-30 07:08 43.47753 -86.96575 33074 ft 506 kts 34°
2026-04-30 07:09 43.53152 -86.90322 33070 ft 507 kts 34°
2026-04-30 07:09 43.58557 -86.84046 33071 ft 509 kts 35°
2026-04-30 07:10 43.63981 -86.77732 33078 ft 510 kts 35°
2026-04-30 07:10 43.69404 -86.71401 33068 ft 511 kts 35°
2026-04-30 07:11 43.74827 -86.65056 33059 ft 511 kts 35°
2026-04-30 07:11 43.80213 -86.58739 33067 ft 511 kts 35°
2026-04-30 07:12 43.85631 -86.52370 33051 ft 511 kts 36°
2026-04-30 07:12 43.91051 -86.45983 33047 ft 512 kts 36°
2026-04-30 07:13 43.96471 -86.39579 33048 ft 512 kts 36°
2026-04-30 07:13 44.01898 -86.33151 33049 ft 513 kts 36°
2026-04-30 07:14 44.07321 -86.26710 33048 ft 513 kts 36°
2026-04-30 07:14 44.12738 -86.20261 33066 ft 512 kts 36°
2026-04-30 07:15 44.18150 -86.13803 33066 ft 513 kts 37°
2026-04-30 07:15 44.23566 -86.07324 33058 ft 513 kts 37°
2026-04-30 07:16 44.28941 -86.00876 33053 ft 513 kts 37°
2026-04-30 07:16 44.34351 -85.94371 33054 ft 513 kts 37°
2026-04-30 07:17 44.39754 -85.87858 33056 ft 513 kts 37°
2026-04-30 07:18 44.47847 -85.78071 33045 ft 512 kts 37°
2026-04-30 07:18 44.53234 -85.71536 33044 ft 512 kts 37°
2026-04-30 07:19 44.58609 -85.64998 33047 ft 511 kts 37°
2026-04-30 07:19 44.63975 -85.58455 33039 ft 511 kts 37°
2026-04-30 07:20 44.69178 -85.51627 33036 ft 513 kts 43°